User: anonymous   Login
Location: Unspecified
(0.0000°N, 0.0000°E)
Time: 13:50:07
(UTC+00:00)
Language:

AOBA-VELOX 3 - Orbit

View from above orbital plane
View from above orbital plane
View from above satellite
View from above satellite

Ground track
Ground track

The orbit data is extracted from the following two-line orbital elements,

1 41935U 98067KX  17114.85862242 +.00029411 +00000-0 +39022-3 0  9999
2 41935 051.6401 302.6917 0005289 080.2993 279.8596 15.57978546015328
Epoch (UTC): 24 April 2017 20:36:24
Eccentricity: 0.0005289
inclination: 51.6401°
perigee height: 390 km
apogee height: 397 km
right ascension of ascending node: 302.6917°
argument of perigee: 80.2993°
revolutions per day: 15.57978546
mean anomaly at epoch: 279.8596°
orbit number at epoch: 1532

The dashed part of the orbit path shows where the satellite is in the earth's shadow,  

DLR